Hauptseite
METAR-TAF:

METAR-TAF

Flughäfen :

Eureka, Nunavut, Kanada

Breite: 79-59N, Länge: 085-56W, Höhe: 10 m

Beobachtung

Neuester Wetterbericht von vor 22 Minuten, um 02:00 UTC
Windstille
Temperatur -38°C
Luftfeuchtigkeit 66%
Luftdruck 1012 hPa
Sichtweite: 24.1 km
Himmel klar
Eisnadeln

METAR: CWEU 180200Z 00000KT 15SM IC SKC M38/M42 A2989 RMK SLP127

Zeit: 20:22 (02:22 UTC)


TAF: fehlend

Wetterbeobachtungen und Prognosen von mehr als 4000 Flughäfen (METAR und TAF Bericht).

Die verfügbaren Stationen werden durch gelbe und rote Markierungen auf der Karte dargestellt.

Führen Sie die Maus auf sie, um den Namen der Station zu sehen.

Darauf klicken, um die Beobachtung von Wetterbeobachtungen und Prognosen zu sehen.

Um die Karte zu ändern : klicken Sie auf den grünen Tasten mit einem schwarzen Kreuz Zum Vergrößern, auf den grünen Button mit einem Gedankenstrich zu verkleinern, oder auf die grünen Pfeile für benachbarte Karten.


METAR-TAF: